Location: ??????????
(54.7560°N, 39.1389°E)
Time: 09:08:48
(UTC+00:00)

CZ-2C R/B - Pass Details

Date: 19 May 2025
Orbit: 782 x 867 km, 98.4° (Epoch: 12 June)

Event Time Altitude Azimuth Distance (km) Brightness Sun altitude
Exits shadow 22:36:31 18° 180° (S) 1,848 3.9 -13.5°
Maximum altitude 22:40:20 62° 258° (WSW) 881 2.6 -13.3°
Drops below altitude 10° 22:45:28 10° 339° (NNW) 2,353 5.8 -13.1°
Sets 22:47:50 0° 343° (NNW) 3,288 6.7 -12.9°
